WX6HNX-13 Weather Reports


time (UTC)temp
C
wind
direction
speed
KPH
gust
KPH
rain 1hr
cm
rain 24hr
cm
rain mn
cm
humidity
%
barometer
mb
20260507031803 22 0 29.0 40.2 0.00 0.00 0.00 41 1012.6
20260507031304 22 0 29.0 41.8 0.00 0.00 0.00 41 1012.6
20260507030804 22 0 30.6 45.1 0.00 0.00 0.00 41 1012.5
20260507030304 22 0 33.8 45.1 0.00 0.00 0.00 40 1012.6
20260507025802 23 0 32.2 43.5 0.00 0.00 0.00 40 1012.5
20260507025302 23 0 29.0 41.8 0.00 0.00 0.00 39 1012.4
20260507024802 23 0 30.6 48.3 0.00 0.00 0.00 38 1012.4
20260507024302 23 0 29.0 48.3 0.00 0.00 0.00 38 1012.4
20260507023801 23 0 25.7 38.6 0.00 0.00 0.00 38 1012.3
20260507023302 23 0 25.7 40.2 0.00 0.00 0.00 38 1012.3
20260507022300 24 0 27.4 38.6 0.00 0.00 0.00 37 1012.3
20260507021800 24 0 24.1 38.6 0.00 0.00 0.00 37 1012.2
20260507021300 24 0 25.7 37.0 0.00 0.00 0.00 36 1012.2
20260507020800 25 0 29.0 45.1 0.00 0.00 0.00 35 1012.2
20260507020259 25 0 25.7 45.1 0.00 0.00 0.00 35 1012.2
20260507015800 25 0 25.7 45.1 0.00 0.00 0.00 35 1012.0
20260507015258 25 0 25.7 40.2 0.00 0.00 0.00 35 1012.1
20260507014756 25 0 24.1 38.6 0.00 0.00 0.00 34 1012.2
20260507014300 26 0 24.1 38.6 0.00 0.00 0.00 34 1012.2
20260507014255 25 0 24.1 38.6 0.00 0.00 0.00 34 1012.2
20260507013256 26 0 27.4 40.2 0.00 0.00 0.00 33 1012.2
20260507012756 26 0 29.0 43.5 0.00 0.00 0.00 33 1012.2
20260507012256 26 0 30.6 46.7 0.00 0.00 0.00 32 1012.2
20260507011800 26 0 27.4 40.2 0.00 0.00 0.00 31 1012.2
20260507011756 26 0 30.6 46.7 0.00 0.00 0.00 32 1012.2
20260507010755 26 0 24.1 40.2 0.00 0.00 0.00 31 1012.2
20260507010256 27 0 24.1 37.0 0.00 0.00 0.00 30 1012.1
20260507005755 27 0 25.7 37.0 0.00 0.00 0.00 30 1012.2
20260507005300 27 0 25.7 38.6 0.00 0.00 0.00 30 1012.2
20260507005256 27 0 25.7 38.6 0.00 0.00 0.00 30 1012.2
20260507004858 27 0 24.1 37.0 0.00 0.00 0.00 29 1012.1
20260507003754 28 0 24.1 35.4 0.00 0.00 0.00 29 1012.1
20260507003254 28 0 24.1 35.4 0.00 0.00 0.00 28 1012.2
20260507002753 28 0 24.1 37.0 0.00 0.00 0.00 28 1012.1
20260507002254 28 0 22.5 37.0 0.00 0.00 0.00 28 1012.0
20260507001758 28 0 20.9 33.8 0.00 0.00 0.00 28 1012.0
20260507001753 28 0 19.3 33.8 0.00 0.00 0.00 28 1012.0
20260507001358 28 0 22.5 33.8 0.00 0.00 0.00 28 1012.0
20260507000254 29 0 20.9 32.2 0.00 0.00 0.00 27 1011.9
20260506235758 30 0 6.4 22.5 0.00 0.00 0.00 24 1011.9
20260506235754 29 0 14.5 32.2 0.00 0.00 0.00 26 1011.9
20260506234754 29 0 4.8 9.7 0.00 0.00 0.00 19 1011.8
20260506234258 29 0 14.5 24.1 0.00 0.00 0.00 20 1011.9
20260506234254 29 0 8.0 17.7 0.00 0.00 0.00 19 1011.8
20260506233254 29 0 12.9 24.1 0.00 0.00 0.00 19 1011.8
20260506232754 28 0 14.5 25.7 0.00 0.00 0.00 19 1011.8
20260506232254 29 0 14.5 25.7 0.00 0.00 0.00 19 1012.0
20260506231758 29 0 9.7 22.5 0.00 0.00 0.00 19 1012.0
20260506231754 29 0 12.9 24.1 0.00 0.00 0.00 19 1011.9
20260506230754 29 0 8.0 16.1 0.00 0.00 0.00 20 1012.0
20260506230253 29 116 6.4 14.5 0.00 0.00 0.00 20 1012.1
20260506225754 28 0 8.0 17.7 0.00 0.00 0.00 20 1012.1
20260506225254 28 0 12.9 22.5 0.00 0.00 0.00 20 1012.2
20260506224754 28 0 11.3 22.5 0.00 0.00 0.00 20 1012.3
20260506224253 28 0 8.0 16.1 0.00 0.00 0.00 20 1012.3
20260506223754 28 0 9.7 17.7 0.00 0.00 0.00 20 1012.3
20260506223254 28 0 11.3 22.5 0.00 0.00 0.00 21 1012.4
20260506222753 28 0 11.3 22.5 0.00 0.00 0.00 21 1012.5
20260506222254 28 0 11.3 19.3 0.00 0.00 0.00 21 1012.5
20260506221754 28 0 14.5 29.0 0.00 0.00 0.00 21 1012.5
20260506221253 28 0 17.7 32.2 0.00 0.00 0.00 21 1012.6
20260506220758 28 0 17.7 25.7 0.00 0.00 0.00 21 1012.8
20260506220754 28 0 19.3 32.2 0.00 0.00 0.00 21 1012.7
20260506220358 28 0 16.1 25.7 0.00 0.00 0.00 21 1012.9
20260506215253 28 0 11.3 25.7 0.00 0.00 0.00 21 1012.9
20260506214754 28 0 8.0 20.9 0.00 0.00 0.00 21 1013.1
20260506214253 28 0 6.4 19.3 0.00 0.00 0.00 22 1013.2
20260506213754 28 0 4.8 20.9 0.00 0.00 0.00 22 1013.2
20260506213253 28 0 8.0 20.9 0.00 0.00 0.00 22 1013.3
20260506212753 28 0 9.7 22.5 0.00 0.00 0.00 22 1013.4
20260506212257 27 0 8.0 22.5 0.00 0.00 0.00 24 1013.5
20260506212251 27 0 8.0 22.5 0.00 0.00 0.00 22 1013.4
20260506211752 27 0 6.4 16.1 0.00 0.00 0.00 23 1013.4
20260506210752 27 0 11.3 22.5 0.00 0.00 0.00 24 1013.5
20260506210251 27 0 11.3 20.9 0.00 0.00 0.00 25 1013.5
20260506205752 27 0 8.0 20.9 0.00 0.00 0.00 24 1013.6
20260506205252 27 0 6.4 16.1 0.00 0.00 0.00 26 1013.6
20260506204754 26 0 9.7 16.1 0.00 0.00 0.00 27 1013.7
20260506204750 26 0 8.0 14.5 0.00 0.00 0.00 26 1013.7
20260506203749 26 0 11.3 22.5 0.00 0.00 0.00 27 1013.8
20260506203247 27 0 8.0 22.5 0.00 0.00 0.00 27 1013.8
20260506202748 27 113 4.8 19.3 0.00 0.00 0.00 27 1013.9
20260506202245 26 0 6.4 14.5 0.00 0.00 0.00 27 1013.9
20260506201742 26 0 8.0 14.5 0.00 0.00 0.00 28 1013.8
20260506201241 26 0 6.4 12.9 0.00 0.00 0.00 28 1013.9
20260506200746 26 0 8.0 16.1 0.00 0.00 0.00 28 1014.0
20260506200742 26 108 6.4 16.1 0.00 0.00 0.00 28 1014.0
20260506200345 26 0 4.8 14.5 0.00 0.00 0.00 28 1014.1
20260506195241 26 94 4.8 16.1 0.00 0.00 0.00 28 1014.1
20260506194741 25 0 6.4 16.1 0.00 0.00 0.00 29 1014.2
20260506194241 25 0 6.4 17.7 0.00 0.00 0.00 29 1014.2
20260506193741 25 0 8.0 17.7 0.00 0.00 0.00 29 1014.3
20260506193241 25 0 8.0 16.1 0.00 0.00 0.00 30 1014.4
20260506192741 25 0 4.8 16.1 0.00 0.00 0.00 30 1014.4
20260506192241 24 0 4.8 8.0 0.00 0.00 0.00 30 1014.5
20260506191740 24 0 4.8 17.7 0.00 0.00 0.00 31 1014.5
20260506191243 24 0 8.0 16.1 0.00 0.00 0.00 31 1014.8
20260506191239 24 0 6.4 17.7 0.00 0.00 0.00 31 1014.7
20260506190243 24 0 6.4 19.3 0.00 0.00 0.00 31 1014.9
20260506190239 24 0 9.7 19.3 0.00 0.00 0.00 32 1014.8
20260506185237 23 0 8.0 17.7 0.00 0.00 0.00 32 1014.9
20260506184738 23 0 11.3 22.5 0.00 0.00 0.00 34 1014.9
20260506184242 22 0 8.0 16.1 0.00 0.00 0.00 35 1015.0
20260506184238 23 0 9.7 22.5 0.00 0.00 0.00 34 1015.0
20260506183240 22 0 6.4 17.7 0.00 0.00 0.00 35 1015.2
20260506183235 22 58 8.0 16.1 0.00 0.00 0.00 35 1015.1
20260506182235 22 0 4.8 17.7 0.00 0.00 0.00 36 1015.1
20260506181735 22 0 4.8 12.9 0.00 0.00 0.00 36 1015.2
20260506181236 22 0 6.4 12.9 0.00 0.00 0.00 37 1015.2
20260506180735 22 0 6.4 14.5 0.00 0.00 0.00 37 1015.3
20260506180234 22 0 4.8 14.5 0.00 0.00 0.00 37 1015.3
20260506175733 22 136 4.8 12.9 0.00 0.00 0.00 37 1015.4
20260506175233 22 0 4.8 8.0 0.00 0.00 0.00 37 1015.4
20260506174733 21 0 3.2 9.7 0.00 0.00 0.00 39 1015.4
20260506174233 21 0 4.8 9.7 0.00 0.00 0.00 39 1015.4
20260506173733 20 0 4.8 9.7 0.00 0.00 0.00 39 1015.4
20260506173237 20 0 4.8 14.5 0.00 0.00 0.00 40 1015.5
20260506173233 20 0 6.4 14.5 0.00 0.00 0.00 40 1015.4
20260506172234 20 0 3.2 14.5 0.00 0.00 0.00 41 1015.5
20260506171733 20 0 3.2 8.0 0.00 0.00 0.00 41 1015.5
20260506171231 20 0 4.8 9.7 0.00 0.00 0.00 43 1015.6
20260506170731 19 0 4.8 9.7 0.00 0.00 0.00 43 1015.5
20260506170235 18 0 6.4 12.9 0.00 0.00 0.00 44 1015.5
20260506170231 19 0 4.8 12.9 0.00 0.00 0.00 44 1015.5
20260506165836 18 0 6.4 8.0 0.00 0.00 0.00 44 1015.6
20260506164731 18 0 4.8 8.0 0.00 0.00 0.00 45 1015.6
20260506164231 18 0 4.8 12.9 0.00 0.00 0.00 46 1015.6
20260506163732 17 0 6.4 12.9 0.00 0.00 0.00 46 1015.7
20260506163236 17 0 6.4 12.9 0.00 0.00 0.00 47 1015.7
20260506162735 17 0 4.8 12.9 0.00 0.00 0.00 48 1015.7
20260506162730 17 0 6.4 12.9 0.00 0.00 0.00 47 1015.7
20260506161729 17 0 4.8 12.9 0.00 0.00 0.00 49 1015.7
20260506161229 16 0 6.4 12.9 0.00 0.00 0.00 51 1015.7
20260506160729 16 0 6.4 12.9 0.00 0.00 0.00 52 1015.8
20260506160229 16 0 6.4 12.9 0.00 0.00 0.00 53 1015.8
20260506155730 16 0 6.4 14.5 0.00 0.00 0.00 53 1015.7
20260506155229 15 0 6.4 14.5 0.00 0.00 0.00 54 1015.7
20260506154735 15 0 4.8 9.7 0.00 0.00 0.00 56 1015.7
20260506154728 15 117 6.4 11.3 0.00 0.00 0.00 55 1015.7
20260506154229 15 116 4.8 11.3 0.00 0.00 0.00 55 1015.7
20260506153227 15 0 4.8 8.0 0.00 0.00 0.00 57 1015.7
20260506152727 14 0 6.4 12.9 0.00 0.00 0.00 58 1015.7
20260506152225 14 0 4.8 12.9 0.00 0.00 0.00 59 1015.6
20260506151723 13 113 4.8 12.9 0.00 0.00 0.00 60 1015.6
20260506151227 13 0 6.4 12.9 0.00 0.00 0.00 62 1015.7
20260506151223 13 0 6.4 12.9 0.00 0.00 0.00 61 1015.6
20260506150223 12 109 6.4 12.9 0.00 0.00 0.00 63 1015.6
20260506145728 12 0 6.4 12.9 0.00 0.00 0.00 63 1015.6
20260506145222 12 0 8.0 12.9 0.00 0.00 0.00 64 1015.5
20260506144723 12 0 6.4 14.5 0.00 0.00 0.00 64 1015.6
20260506144223 11 87 6.4 14.5 0.00 0.00 0.00 66 1015.5
20260506143722 11 0 6.4 12.9 0.00 0.00 0.00 67 1015.5
20260506143227 11 0 4.8 9.7 0.00 0.00 0.00 68 1015.5
20260506143223 11 0 6.4 9.7 0.00 0.00 0.00 67 1015.4
20260506142221 10 96 3.2 9.7 0.00 0.00 0.00 68 1015.4
20260506141719 10 0 3.2 4.8 0.00 0.00 0.00 69 1015.3
20260506141223 10 92 6.4 16.1 0.00 0.00 0.00 70 1015.1
20260506141219 10 92 4.8 11.3 0.00 0.00 0.00 70 1015.2
20260506140824 10 91 6.4 16.1 0.00 0.00 0.00 69 1015.2
20260506135720 10 88 4.8 11.3 0.00 0.00 0.00 72 1015.1
20260506135219 9 88 4.8 11.3 0.00 0.00 0.00 71 1015.0
20260506134716 9 89 3.2 11.3 0.00 0.00 0.00 71 1015.0
20260506134218 9 84 6.4 16.1 0.00 0.00 0.00 71 1015.0
20260506133721 10 0 8.0 16.1 0.00 0.00 0.00 68 1014.9
20260506133716 9 89 9.7 16.1 0.00 0.00 0.00 70 1014.9
20260506133322 10 0 6.4 16.1 0.00 0.00 0.00 67 1014.5
20260506132716 10 0 6.4 16.1 0.00 0.00 0.00 68 1014.7
20260506131717 10 133 6.4 16.1 0.00 0.00 0.00 65 1014.5
20260506131216 11 0 14.5 33.8 0.00 0.00 0.00 61 1014.5
20260506130717 13 0 22.5 41.8 0.00 0.00 0.00 60 1014.4
20260506130217 13 0 25.7 41.8 0.00 0.00 0.00 60 1014.1
20260506125716 13 0 24.1 38.6 0.00 0.00 0.00 59 1014.1
20260506125217 13 0 20.9 35.4 0.00 0.00 0.00 59 1014.1
20260506124716 13 0 19.3 33.8 0.00 0.00 0.00 58 1014.0
20260506124217 13 0 20.9 33.8 0.00 0.00 0.00 59 1014.1
20260506123822 13 0 22.5 40.2 0.00 0.00 0.00 60 1013.9
20260506123721 13 0 22.5 38.6 0.00 0.00 0.00 60 1013.8
20260506123717 13 0 22.5 38.6 0.00 0.00 0.00 60 1014.0
20260506122216 13 0 24.1 41.8 0.00 0.00 0.00 60 1013.9
20260506121717 13 0 24.1 41.8 0.00 0.00 0.00 60 1013.9
20260506121217 13 0 22.5 32.2 0.00 0.00 0.00 61 1013.9
20260506120722 13 0 20.9 33.8 0.00 0.00 0.00 59 1013.8
20260506120717 13 0 22.5 33.8 0.00 0.00 0.00 61 1013.8
20260506115716 13 0 22.5 43.5 0.00 0.00 0.00 58 1013.8
20260506115217 13 0 20.9 43.5 0.00 0.00 0.00 58 1013.8
20260506114716 13 0 19.3 40.2 0.00 0.00 0.00 60 1013.7
20260506114217 13 0 25.7 45.1 0.00 0.00 0.00 61 1013.8
20260506113716 13 0 27.4 45.1 0.00 0.00 0.00 60 1013.7
20260506113217 13 0 24.1 40.2 0.00 0.00 0.00 60 1013.6
20260506112720 13 0 20.9 35.4 0.00 0.00 0.00 58 1013.8
20260506112716 13 0 22.5 38.6 0.00 0.00 0.00 60 1013.7
20260506111716 13 0 22.5 37.0 0.00 0.00 0.00 60 1013.8
20260506111217 13 0 25.7 40.2 0.00 0.00 0.00 61 1013.7
20260506110717 13 0 24.1 40.2 0.00 0.00 0.00 61 1013.7
20260506110216 13 0 22.5 37.0 0.00 0.00 0.00 58 1013.6
20260506105717 13 0 22.5 37.0 0.00 0.00 0.00 58 1013.6
20260506105216 13 0 20.9 35.4 0.00 0.00 0.00 58 1013.6
20260506104721 13 0 22.5 33.8 0.00 0.00 0.00 59 1013.5
20260506104717 13 0 20.9 33.8 0.00 0.00 0.00 58 1013.5
20260506103717 13 0 22.5 33.8 0.00 0.00 0.00 61 1013.5
20260506103220 13 0 22.5 41.8 0.00 0.00 0.00 59 1013.6
20260506103216 13 0 24.1 41.8 0.00 0.00 0.00 60 1013.6
20260506102217 13 0 20.9 41.8 0.00 0.00 0.00 57 1013.4
20260506101716 13 0 20.9 32.2 0.00 0.00 0.00 58 1013.5
20260506101217 13 0 24.1 37.0 0.00 0.00 0.00 60 1013.3
20260506100716 13 0 22.5 37.0 0.00 0.00 0.00 60 1013.4
20260506100217 13 0 20.9 33.8 0.00 0.00 0.00 60 1013.4
20260506095717 13 0 22.5 37.0 0.00 0.00 0.00 60 1013.5
20260506095216 13 0 22.5 37.0 0.00 0.00 0.00 59 1013.4
20260506094717 13 0 24.1 38.6 0.00 0.00 0.00 58 1013.4
20260506094215 13 0 24.1 38.6 0.00 0.00 0.00 59 1013.4
20260506093721 13 0 24.1 37.0 0.00 0.00 0.00 59 1013.3
20260506093717 13 224 24.1 35.4 0.00 0.00 0.00 58 1013.3
20260506092716 13 0 24.1 37.0 0.00 0.00 0.00 60 1013.3
20260506092217 13 0 24.1 37.0 0.00 0.00 0.00 59 1013.3
20260506091714 13 0 24.1 37.0 0.00 0.00 0.00 57 1013.2
20260506091214 14 0 24.1 37.0 0.00 0.00 0.00 55 1013.3
20260506090715 14 0 22.5 37.0 0.00 0.00 0.00 57 1013.4
20260506090212 13 0 22.5 37.0 0.00 0.00 0.00 59 1013.3
20260506085711 13 0 24.1 37.0 0.00 0.00 0.00 60 1013.3
20260506085210 13 267 22.5 37.0 0.00 0.00 0.00 59 1013.4
20260506084710 13 0 22.5 41.8 0.00 0.00 0.00 58 1013.4
20260506084210 14 0 24.1 41.8 0.00 0.00 0.00 57 1013.4
20260506083710 14 0 22.5 33.8 0.00 0.00 0.00 57 1013.5
20260506083208 14 0 22.5 33.8 0.00 0.00 0.00 57 1013.4
20260506082708 13 0 24.1 33.8 0.00 0.00 0.00 58 1013.4
20260506082208 13 0 22.5 37.0 0.00 0.00 0.00 58 1013.3
20260506081707 13 0 22.5 37.0 0.00 0.00 0.00 58 1013.4
20260506081206 13 0 24.1 37.0 0.00 0.00 0.00 58 1013.5
20260506080721 14 0 25.7 38.6 0.00 0.00 0.00 57 1013.3
20260506080706 14 0 24.1 38.6 0.00 0.00 0.00 57 1013.4
20260506072700 14 0 24.1 38.6 0.00 0.00 0.00 57 1013.2
20260506072200 14 0 22.5 37.0 0.00 0.00 0.00 57 1013.2
20260506071700 14 0 24.1 33.8 0.00 0.00 0.00 57 1013.2
20260506071203 14 0 25.7 38.6 0.00 0.00 0.00 57 1013.1
20260506071158 14 0 24.1 38.6 0.00 0.00 0.00 57 1013.2
20260506070159 14 0 27.4 40.2 0.00 0.00 0.00 57 1012.9
20260506062156 14 0 20.9 33.8 0.00 0.00 0.00 55 1012.5
20260506061658 14 0 22.5 35.4 0.00 0.00 0.00 55 1012.5
20260506061156 14 0 24.1 46.7 0.00 0.00 0.00 55 1012.5
20260506060654 14 0 25.7 46.7 0.00 0.00 0.00 56 1012.4
20260506060154 14 0 27.4 46.7 0.00 0.00 0.00 56 1012.3
20260506051150 14 0 29.0 46.7 0.00 0.00 0.00 56 1011.9
20260506050648 14 0 27.4 43.5 0.00 0.00 0.00 56 1011.8
20260506050149 14 0 25.7 43.5 0.00 0.00 0.00 56 1011.8
20260506044648 14 0 25.7 38.6 0.00 0.00 0.00 57 1011.6
20260506044149 14 0 27.4 40.2 0.00 0.00 0.00 57 1011.6
20260506043648 14 0 27.4 40.2 0.00 0.00 0.00 57 1011.5
20260506043148 14 0 25.7 40.2 0.00 0.00 0.00 57 1011.5
20260506042646 14 0 25.7 43.5 0.00 0.00 0.00 58 1011.5
20260506042146 14 0 25.7 43.5 0.00 0.00 0.00 58 1011.2
20260506041647 14 0 27.4 38.6 0.00 0.00 0.00 58 1011.2
20260506041146 14 0 27.4 43.5 0.00 0.00 0.00 59 1011.1
20260506040646 13 0 27.4 43.5 0.00 0.00 0.00 60 1011.1
20260506040147 13 0 27.4 38.6 0.00 0.00 0.00 60 1011.0
20260506035646 13 0 29.0 43.5 0.00 0.00 0.00 60 1010.9
20260506035147 14 0 30.6 48.3 0.00 0.00 0.00 59 1011.0
20260506034650 14 0 27.4 43.5 0.00 0.00 0.00 59 1010.7
20260506034646 14 0 29.0 48.3 0.00 0.00 0.00 59 1010.9
20260506033644 14 0 29.0 46.7 0.00 0.00 0.00 59 1010.7
20260506033144 14 0 30.6 46.7 0.00 0.00 0.00 58 1010.6
20260506032644 14 0 29.0 46.7 0.00 0.00 0.00 58 1010.5
20260506032144 14 0 25.7 38.6 0.00 0.00 0.00 59 1010.5